NKS935 KLAX-KIAH

Flight info

Callsign NKS935
Flight time 2h 50m
Altitude 37000
Route DOTSS2 CNERY BLH SPTFR Q4 FUSCO DIESL TTORO3
Aircraft A319/M-SDE3FGHIRWY/LB1

Departure

Time 2026-05-08 00:24
Airport Los Angeles International Airport (KLAX)

Arrival

Time 2026-05-08 03:14
Airport George Bush Intercontinental Airport (KIAH)
Time Latitude Longitude Altitude Speed Heading
2026-05-07 23:58 33.94022 -118.40372 126 ft 0 kts 255°
2026-05-08 00:10 33.94025 -118.40360 121 ft 2 kts 255°
2026-05-08 00:10 33.94029 -118.40341 120 ft 2 kts 254°
2026-05-08 00:11 33.94034 -118.40321 121 ft 2 kts 239°
2026-05-08 00:11 33.94043 -118.40312 121 ft 1 kts 163°
2026-05-08 00:15 33.93997 -118.40302 123 ft 13 kts 170°
2026-05-08 00:15 33.93886 -118.40290 124 ft 15 kts 175°
2026-05-08 00:16 33.93859 -118.40187 126 ft 15 kts 82°
2026-05-08 00:16 33.93873 -118.40054 126 ft 17 kts 83°
2026-05-08 00:16 33.93886 -118.39907 124 ft 18 kts 84°
2026-05-08 00:16 33.93902 -118.39750 123 ft 19 kts 81°
2026-05-08 00:17 33.93920 -118.39584 126 ft 21 kts 83°
2026-05-08 00:17 33.93938 -118.39408 126 ft 22 kts 83°
2026-05-08 00:17 33.93958 -118.39224 124 ft 22 kts 82°
2026-05-08 00:17 33.93993 -118.39038 126 ft 24 kts 66°
2026-05-08 00:18 33.94002 -118.38909 123 ft 14 kts 111°
2026-05-08 00:18 33.94001 -118.38789 126 ft 15 kts 85°
2026-05-08 00:18 33.94013 -118.38660 123 ft 16 kts 83°
2026-05-08 00:18 33.94027 -118.38522 124 ft 17 kts 83°
2026-05-08 00:19 33.94044 -118.38377 125 ft 18 kts 85°
2026-05-08 00:19 33.94058 -118.38240 124 ft 8 kts 82°
2026-05-08 00:19 33.94064 -118.38188 125 ft 6 kts 82°
2026-05-08 00:19 33.94066 -118.38175 125 ft 1 kts 82°
2026-05-08 00:20 33.94068 -118.38158 125 ft 3 kts 83°
2026-05-08 00:20 33.94070 -118.38125 122 ft 5 kts 84°
2026-05-08 00:20 33.94074 -118.38077 125 ft 7 kts 84°
2026-05-08 00:20 33.94077 -118.38037 125 ft 0 kts 91°
2026-05-08 00:21 33.94077 -118.38036 125 ft 0 kts 91°
2026-05-08 00:22 33.94071 -118.38017 123 ft 7 kts 124°
2026-05-08 00:22 33.94004 -118.37997 124 ft 9 kts 199°
2026-05-08 00:23 33.93983 -118.38037 125 ft 0 kts 262°
2026-05-08 00:23 33.93975 -118.38116 126 ft 37 kts 263°
2026-05-08 00:23 33.93908 -118.38758 126 ft 115 kts 263°
2026-05-08 00:24 33.93784 -118.39984 142 ft 175 kts 262°
2026-05-08 00:24 33.93652 -118.41376 1052 ft 156 kts 262°
2026-05-08 00:24 33.93510 -118.42652 1876 ft 155 kts 262°
2026-05-08 00:24 33.93371 -118.44010 2326 ft 173 kts 264°
2026-05-08 00:25 33.93145 -118.45505 2578 ft 196 kts 253°
2026-05-08 00:25 33.92425 -118.47026 2821 ft 224 kts 233°
2026-05-08 00:25 33.91397 -118.48559 3173 ft 248 kts 230°
2026-05-08 00:25 33.89914 -118.49756 3728 ft 265 kts 205°
2026-05-08 00:26 33.88163 -118.50531 4541 ft 270 kts 201°
2026-05-08 00:26 33.86373 -118.51258 5334 ft 274 kts 201°
2026-05-08 00:26 33.84548 -118.51997 5823 ft 279 kts 201°
2026-05-08 00:26 33.82704 -118.52747 5971 ft 279 kts 201°
2026-05-08 00:27 33.80896 -118.53484 5999 ft 278 kts 201°
2026-05-08 00:27 33.79062 -118.54233 6004 ft 278 kts 201°
2026-05-08 00:27 33.77230 -118.54980 6004 ft 278 kts 201°
2026-05-08 00:27 33.75392 -118.55734 6004 ft 278 kts 201°
2026-05-08 00:28 33.73559 -118.56485 6005 ft 278 kts 201°
2026-05-08 00:28 33.71727 -118.57237 6004 ft 278 kts 201°
2026-05-08 00:28 33.69895 -118.57990 6004 ft 278 kts 201°
2026-05-08 00:28 33.68065 -118.58740 6006 ft 278 kts 201°
2026-05-08 00:29 33.66226 -118.59496 6006 ft 278 kts 201°
2026-05-08 00:29 33.64388 -118.60251 6006 ft 279 kts 201°
2026-05-08 00:29 33.62575 -118.60998 6017 ft 279 kts 201°
2026-05-08 00:29 33.60738 -118.61757 6041 ft 280 kts 201°
2026-05-08 00:30 33.58882 -118.62524 6715 ft 282 kts 201°
2026-05-08 00:30 33.57017 -118.63304 7447 ft 286 kts 201°
2026-05-08 00:30 33.55121 -118.64099 8167 ft 291 kts 198°
2026-05-08 00:30 33.53118 -118.64400 8852 ft 298 kts 175°
2026-05-08 00:31 33.51117 -118.63747 9597 ft 300 kts 150°
2026-05-08 00:31 33.49496 -118.62191 10317 ft 299 kts 126°
2026-05-08 00:31 33.48500 -118.59960 10649 ft 314 kts 102°
2026-05-08 00:31 33.48407 -118.57295 10812 ft 332 kts 78°
2026-05-08 00:32 33.48970 -118.54599 11219 ft 342 kts 73°
2026-05-08 00:32 33.49334 -118.52983 11565 ft 345 kts 73°
2026-05-08 00:32 33.49949 -118.50190 12209 ft 348 kts 75°
2026-05-08 00:32 33.50544 -118.47361 12863 ft 351 kts 75°
2026-05-08 00:33 33.51128 -118.44508 13509 ft 354 kts 75°
2026-05-08 00:33 33.51714 -118.41614 14110 ft 357 kts 76°
2026-05-08 00:33 33.52298 -118.38741 14668 ft 360 kts 75°
2026-05-08 00:33 33.52899 -118.35811 15228 ft 363 kts 75°
2026-05-08 00:34 33.53509 -118.32860 15793 ft 366 kts 75°
2026-05-08 00:34 33.54126 -118.29888 16351 ft 369 kts 75°
2026-05-08 00:34 33.54747 -118.26892 16911 ft 372 kts 75°
2026-05-08 00:34 33.55372 -118.23865 17474 ft 375 kts 75°
2026-05-08 00:35 33.56002 -118.20813 18035 ft 378 kts 75°
2026-05-08 00:35 33.56635 -118.17733 18537 ft 381 kts 75°
2026-05-08 00:35 33.57272 -118.14632 19031 ft 384 kts 75°
2026-05-08 00:35 33.57914 -118.11511 19540 ft 387 kts 75°
2026-05-08 00:36 33.58561 -118.08362 20031 ft 390 kts 75°
2026-05-08 00:36 33.59202 -118.05226 20520 ft 393 kts 75°
2026-05-08 00:36 33.59853 -118.02019 21008 ft 396 kts 75°
2026-05-08 00:36 33.60509 -117.98790 21482 ft 399 kts 75°
2026-05-08 00:37 33.61171 -117.95538 21942 ft 402 kts 75°
2026-05-08 00:37 33.61835 -117.92275 22391 ft 405 kts 75°
2026-05-08 00:37 33.62504 -117.88972 22832 ft 407 kts 75°
2026-05-08 00:38 33.63718 -117.82262 23665 ft 415 kts 82°
2026-05-08 00:38 33.63789 -117.78828 24009 ft 419 kts 92°
2026-05-08 00:38 33.63383 -117.75471 24359 ft 424 kts 101°
2026-05-08 00:38 33.62572 -117.72043 24725 ft 427 kts 104°
2026-05-08 00:39 33.61773 -117.68802 25056 ft 429 kts 104°
2026-05-08 00:39 33.60924 -117.65364 25398 ft 431 kts 104°
2026-05-08 00:39 33.60072 -117.61906 25737 ft 433 kts 104°
2026-05-08 00:39 33.59213 -117.58426 26092 ft 435 kts 104°
2026-05-08 00:40 33.58359 -117.54980 26439 ft 437 kts 104°
2026-05-08 00:40 33.57492 -117.51472 26766 ft 439 kts 104°
2026-05-08 00:40 33.56913 -117.49132 27003 ft 440 kts 104°
2026-05-08 00:40 33.56036 -117.45597 27340 ft 442 kts 104°
2026-05-08 00:41 33.55155 -117.42047 27666 ft 445 kts 104°
2026-05-08 00:41 33.54272 -117.38491 27991 ft 447 kts 104°
2026-05-08 00:41 33.53380 -117.34906 28324 ft 449 kts 104°
2026-05-08 00:41 33.52484 -117.31316 28633 ft 451 kts 104°
2026-05-08 00:42 33.51579 -117.27695 28925 ft 453 kts 104°
2026-05-08 00:42 33.50789 -117.24043 29210 ft 453 kts 97°
2026-05-08 00:42 33.50445 -117.20297 29521 ft 452 kts 89°
2026-05-08 00:42 33.50397 -117.16518 29826 ft 453 kts 88°
2026-05-08 00:43 33.50350 -117.12738 30103 ft 455 kts 88°
2026-05-08 00:43 33.50302 -117.08989 30344 ft 456 kts 88°
2026-05-08 00:43 33.50250 -117.05170 30640 ft 456 kts 88°
2026-05-08 00:43 33.50196 -117.01369 31000 ft 455 kts 88°
2026-05-08 00:44 33.50140 -116.97577 31356 ft 454 kts 88°
2026-05-08 00:44 33.50084 -116.93795 31703 ft 453 kts 88°
2026-05-08 00:44 33.50028 -116.90023 32055 ft 451 kts 88°
2026-05-08 00:44 33.49970 -116.86259 32409 ft 450 kts 88°
2026-05-08 00:45 33.49911 -116.82505 32755 ft 449 kts 88°
2026-05-08 00:45 33.49851 -116.78761 33123 ft 448 kts 88°
2026-05-08 00:45 33.49790 -116.75082 33488 ft 447 kts 88°
2026-05-08 00:45 33.49729 -116.71356 33864 ft 445 kts 88°
2026-05-08 00:46 33.49669 -116.67650 34193 ft 444 kts 88°
2026-05-08 00:46 33.49608 -116.63940 34476 ft 444 kts 88°
2026-05-08 00:46 33.49545 -116.60225 34762 ft 444 kts 88°
2026-05-08 00:46 33.49479 -116.56523 35028 ft 444 kts 88°
2026-05-08 00:47 33.49411 -116.52821 35302 ft 444 kts 88°
2026-05-08 00:47 33.49340 -116.49120 35537 ft 444 kts 88°
2026-05-08 00:47 33.49270 -116.45461 35806 ft 444 kts 88°
2026-05-08 00:47 33.49200 -116.41757 36039 ft 444 kts 88°
2026-05-08 00:48 33.49139 -116.38051 36343 ft 444 kts 88°
2026-05-08 00:48 33.49088 -116.34353 36612 ft 443 kts 88°
2026-05-08 00:48 33.49040 -116.30656 36799 ft 443 kts 88°
2026-05-08 00:49 33.48937 -116.23273 36833 ft 442 kts 88°
2026-05-08 00:49 33.48824 -116.15948 36828 ft 442 kts 88°
2026-05-08 00:50 33.48695 -116.08583 36826 ft 442 kts 88°
2026-05-08 00:50 33.49295 -116.01322 36824 ft 436 kts 72°
2026-05-08 00:51 33.51241 -115.94472 36834 ft 433 kts 68°
2026-05-08 00:51 33.53224 -115.87697 36839 ft 433 kts 68°
2026-05-08 00:52 33.55212 -115.80874 36850 ft 433 kts 68°
2026-05-08 00:52 33.57193 -115.74056 36856 ft 432 kts 68°
2026-05-08 00:53 33.59156 -115.67302 36861 ft 431 kts 68°
2026-05-08 00:53 33.61116 -115.60504 36859 ft 431 kts 70°
2026-05-08 00:53 33.61691 -115.56952 36856 ft 436 kts 84°
2026-05-08 00:54 33.61667 -115.53299 36855 ft 438 kts 88°
2026-05-08 00:54 33.61490 -115.45976 36847 ft 438 kts 88°
2026-05-08 00:55 33.61307 -115.38699 36845 ft 439 kts 88°
2026-05-08 00:55 33.61125 -115.31371 36846 ft 439 kts 88°
2026-05-08 00:56 33.60940 -115.24040 36849 ft 439 kts 88°
2026-05-08 00:56 33.60751 -115.16769 36850 ft 439 kts 88°
2026-05-08 00:57 33.60556 -115.09440 36850 ft 439 kts 88°
2026-05-08 00:57 33.60351 -115.02120 36848 ft 438 kts 88°
2026-05-08 00:58 33.60148 -114.94803 36857 ft 438 kts 88°
2026-05-08 00:58 33.59943 -114.87498 36860 ft 438 kts 88°
2026-05-08 00:59 33.59732 -114.80233 36864 ft 437 kts 88°
2026-05-08 00:59 33.59019 -114.72976 36861 ft 442 kts 99°
2026-05-08 01:00 33.57650 -114.65786 36867 ft 441 kts 98°
2026-05-08 01:00 33.56301 -114.58590 36859 ft 441 kts 98°
2026-05-08 01:01 33.54953 -114.51414 36857 ft 441 kts 98°
2026-05-08 01:01 33.53592 -114.44233 36853 ft 441 kts 98°
2026-05-08 01:02 33.52223 -114.37058 36853 ft 441 kts 98°
2026-05-08 01:02 33.50859 -114.29944 36855 ft 441 kts 99°
2026-05-08 01:03 33.49485 -114.22776 36860 ft 441 kts 99°
2026-05-08 01:03 33.48100 -114.15597 36859 ft 441 kts 99°
2026-05-08 01:04 33.46730 -114.08475 36854 ft 441 kts 99°
2026-05-08 01:04 33.45336 -114.01307 36851 ft 442 kts 99°
2026-05-08 01:05 33.43934 -113.94129 36879 ft 442 kts 99°
2026-05-08 01:05 33.42538 -113.86970 36904 ft 442 kts 99°
2026-05-08 01:06 33.41142 -113.79840 36924 ft 442 kts 99°
2026-05-08 01:06 33.39729 -113.72676 36932 ft 442 kts 100°
2026-05-08 01:07 33.37993 -113.65582 36938 ft 445 kts 104°
2026-05-08 01:07 33.35954 -113.58570 36932 ft 446 kts 105°
2026-05-08 01:08 33.33928 -113.51601 36911 ft 446 kts 105°
2026-05-08 01:08 33.31961 -113.44554 36882 ft 446 kts 104°
2026-05-08 01:09 33.30032 -113.37515 36851 ft 446 kts 104°
2026-05-08 01:09 33.28086 -113.30453 36831 ft 446 kts 104°
2026-05-08 01:10 33.26121 -113.23408 36831 ft 447 kts 104°
2026-05-08 01:10 33.24141 -113.16366 36828 ft 447 kts 105°
2026-05-08 01:11 33.22172 -113.09318 36830 ft 447 kts 105°
2026-05-08 01:11 33.20209 -113.02304 36831 ft 447 kts 105°
2026-05-08 01:12 33.18216 -112.95249 36833 ft 447 kts 105°
2026-05-08 01:12 33.16227 -112.88203 36849 ft 448 kts 105°
2026-05-08 01:13 33.14247 -112.81202 36847 ft 447 kts 105°
2026-05-08 01:13 33.12250 -112.74163 36857 ft 447 kts 105°
2026-05-08 01:14 33.10250 -112.67139 36860 ft 447 kts 105°
2026-05-08 01:14 33.08248 -112.60105 36862 ft 447 kts 105°
2026-05-08 01:15 33.06255 -112.53137 36859 ft 446 kts 105°
2026-05-08 01:15 33.04279 -112.46122 36852 ft 446 kts 104°
2026-05-08 01:16 33.02366 -112.39082 36845 ft 445 kts 104°
2026-05-08 01:16 33.00463 -112.32054 36837 ft 445 kts 104°
2026-05-08 01:17 32.98549 -112.25078 36833 ft 445 kts 104°
2026-05-08 01:17 32.96609 -112.18068 36831 ft 446 kts 104°
2026-05-08 01:18 32.94661 -112.11059 36831 ft 446 kts 104°
2026-05-08 01:18 32.92719 -112.04045 36827 ft 446 kts 104°
2026-05-08 01:19 32.90771 -111.97034 36825 ft 446 kts 104°
2026-05-08 01:19 32.88816 -111.90034 36822 ft 447 kts 104°
2026-05-08 01:20 32.86852 -111.83011 36827 ft 447 kts 104°
2026-05-08 01:20 32.85204 -111.77130 36825 ft 447 kts 104°
2026-05-08 01:21 32.83247 -111.70143 36825 ft 447 kts 104°
2026-05-08 01:21 32.81268 -111.63122 36823 ft 447 kts 105°
2026-05-08 01:22 32.79287 -111.56108 36832 ft 447 kts 105°
2026-05-08 01:22 32.77300 -111.49091 36853 ft 448 kts 105°
2026-05-08 01:23 32.75312 -111.42076 36869 ft 448 kts 105°
2026-05-08 01:23 32.73323 -111.35056 36888 ft 448 kts 105°
2026-05-08 01:24 32.71340 -111.28080 36894 ft 448 kts 105°
2026-05-08 01:24 32.69334 -111.21048 36900 ft 449 kts 106°
2026-05-08 01:25 32.67320 -111.14027 36895 ft 449 kts 106°
2026-05-08 01:25 32.65301 -111.06995 36885 ft 449 kts 106°
2026-05-08 01:26 32.63293 -111.00015 36871 ft 449 kts 106°
2026-05-08 01:26 32.61271 -110.92992 36866 ft 449 kts 107°
2026-05-08 01:27 32.59239 -110.85973 36857 ft 449 kts 107°
2026-05-08 01:27 32.57217 -110.78994 36856 ft 450 kts 107°
2026-05-08 01:28 32.55176 -110.71963 36857 ft 450 kts 107°
2026-05-08 01:28 32.53133 -110.64947 36860 ft 450 kts 107°
2026-05-08 01:29 32.51085 -110.57928 36858 ft 450 kts 107°
2026-05-08 01:29 32.49033 -110.50908 36859 ft 450 kts 108°
2026-05-08 01:30 32.46977 -110.43899 36857 ft 451 kts 108°
2026-05-08 01:30 32.44924 -110.36919 36855 ft 451 kts 108°
2026-05-08 01:31 32.42856 -110.29901 36851 ft 451 kts 108°
2026-05-08 01:31 32.40786 -110.22878 36845 ft 452 kts 109°
2026-05-08 01:32 32.38718 -110.15887 36848 ft 452 kts 109°
2026-05-08 01:32 32.36631 -110.08834 36851 ft 453 kts 109°
2026-05-08 01:33 32.34535 -110.01790 36848 ft 454 kts 110°
2026-05-08 01:33 32.32429 -109.94722 36852 ft 455 kts 110°
2026-05-08 01:34 32.30327 -109.87689 36855 ft 456 kts 110°
2026-05-08 01:34 32.28883 -109.80385 36851 ft 458 kts 98°
2026-05-08 01:35 32.28004 -109.72930 36848 ft 458 kts 99°
2026-05-08 01:35 32.27107 -109.65489 36839 ft 459 kts 99°
2026-05-08 01:36 32.26199 -109.58017 36832 ft 459 kts 99°
2026-05-08 01:36 32.25275 -109.50511 36827 ft 460 kts 100°
2026-05-08 01:37 32.24367 -109.43073 36824 ft 461 kts 100°
2026-05-08 01:37 32.23444 -109.35574 36824 ft 461 kts 100°
2026-05-08 01:38 32.22518 -109.28067 36819 ft 462 kts 101°
2026-05-08 01:38 32.21581 -109.20547 36818 ft 463 kts 101°
2026-05-08 01:39 32.20638 -109.13020 36812 ft 464 kts 101°
2026-05-08 01:39 32.19688 -109.05483 36827 ft 464 kts 101°
2026-05-08 01:40 32.18730 -108.97931 36857 ft 465 kts 101°
2026-05-08 01:40 32.17783 -108.90413 36890 ft 467 kts 102°
2026-05-08 01:41 32.16819 -108.82811 36913 ft 468 kts 102°
2026-05-08 01:41 32.15845 -108.75203 36926 ft 469 kts 102°
2026-05-08 01:42 32.14859 -108.67570 36925 ft 471 kts 102°
2026-05-08 01:42 32.13874 -108.59976 36908 ft 472 kts 103°
2026-05-08 01:43 32.12870 -108.52305 36885 ft 474 kts 103°
2026-05-08 01:43 32.11866 -108.44617 36852 ft 475 kts 103°
2026-05-08 01:44 32.10859 -108.36903 36812 ft 476 kts 103°
2026-05-08 01:44 32.09840 -108.29162 36801 ft 478 kts 103°
2026-05-08 01:45 32.08806 -108.21400 36806 ft 479 kts 104°
2026-05-08 01:45 32.07777 -108.13684 36801 ft 480 kts 104°
2026-05-08 01:46 32.06741 -108.05894 36808 ft 481 kts 104°
2026-05-08 01:46 32.05692 -107.98093 36843 ft 482 kts 104°
2026-05-08 01:47 32.04629 -107.90278 36868 ft 484 kts 105°
2026-05-08 01:47 32.03564 -107.82428 36882 ft 485 kts 105°
2026-05-08 01:48 32.01960 -107.70675 36880 ft 487 kts 105°
2026-05-08 01:48 32.00875 -107.62780 36860 ft 488 kts 105°
2026-05-08 01:49 31.99791 -107.54877 36830 ft 489 kts 105°
2026-05-08 01:49 31.98694 -107.46953 36792 ft 490 kts 105°
2026-05-08 01:50 31.97587 -107.39018 36780 ft 491 kts 105°
2026-05-08 01:50 31.96468 -107.31073 36782 ft 492 kts 105°
2026-05-08 01:51 31.95354 -107.23171 36785 ft 493 kts 105°
2026-05-08 01:51 31.94225 -107.15191 36772 ft 493 kts 106°
2026-05-08 01:52 31.93094 -107.07222 36818 ft 494 kts 106°
2026-05-08 01:52 31.91963 -106.99242 36866 ft 494 kts 106°
2026-05-08 01:53 31.90825 -106.91254 36921 ft 495 kts 106°
2026-05-08 01:53 31.89671 -106.83270 36979 ft 495 kts 106°
2026-05-08 01:54 31.88511 -106.75281 36996 ft 495 kts 106°
2026-05-08 01:54 31.87350 -106.67289 36999 ft 495 kts 107°
2026-05-08 01:55 31.86182 -106.59294 36994 ft 496 kts 107°
2026-05-08 01:55 31.85013 -106.51341 36955 ft 496 kts 107°
2026-05-08 01:56 31.83837 -106.43349 36964 ft 496 kts 107°
2026-05-08 01:56 31.82661 -106.35335 36961 ft 497 kts 107°
2026-05-08 01:57 31.81473 -106.27321 36963 ft 498 kts 107°
2026-05-08 01:57 31.80434 -106.19246 36923 ft 501 kts 104°
2026-05-08 01:58 31.79545 -106.11110 36879 ft 502 kts 104°
2026-05-08 01:58 31.78640 -106.02957 36830 ft 502 kts 105°
2026-05-08 01:59 31.77671 -105.94823 36793 ft 502 kts 105°
2026-05-08 01:59 31.76671 -105.86698 36798 ft 503 kts 105°
2026-05-08 02:00 31.75684 -105.78599 36804 ft 504 kts 105°
2026-05-08 02:00 31.74701 -105.70439 36809 ft 505 kts 105°
2026-05-08 02:01 31.73710 -105.62261 36815 ft 506 kts 105°
2026-05-08 02:01 31.72704 -105.54075 36826 ft 507 kts 105°
2026-05-08 02:02 31.71692 -105.45877 36829 ft 508 kts 106°
2026-05-08 02:02 31.70845 -105.39042 36834 ft 509 kts 106°
2026-05-08 02:03 31.69815 -105.30804 36837 ft 510 kts 106°
2026-05-08 02:03 31.68781 -105.22554 36843 ft 511 kts 106°
2026-05-08 02:04 31.67742 -105.14347 36850 ft 512 kts 106°
2026-05-08 02:04 31.66696 -105.06067 36860 ft 513 kts 106°
2026-05-08 02:05 31.65649 -104.97773 36873 ft 514 kts 107°
2026-05-08 02:05 31.64590 -104.89478 36878 ft 515 kts 107°
2026-05-08 02:06 31.63516 -104.81164 36878 ft 515 kts 107°
2026-05-08 02:06 31.62438 -104.72850 36884 ft 515 kts 107°
2026-05-08 02:07 31.61356 -104.64538 36893 ft 515 kts 107°
2026-05-08 02:07 31.60272 -104.56234 36899 ft 515 kts 107°
2026-05-08 02:08 31.59193 -104.47988 36902 ft 515 kts 107°
2026-05-08 02:08 31.58095 -104.39690 36906 ft 515 kts 107°
2026-05-08 02:09 31.56993 -104.31395 36907 ft 514 kts 107°
2026-05-08 02:09 31.55889 -104.23110 36900 ft 514 kts 107°
2026-05-08 02:10 31.54769 -104.14832 36904 ft 513 kts 108°
2026-05-08 02:10 31.53654 -104.06557 36906 ft 513 kts 108°
2026-05-08 02:11 31.52555 -103.98344 36905 ft 513 kts 108°
2026-05-08 02:11 31.51434 -103.90094 36905 ft 513 kts 108°
2026-05-08 02:12 31.50301 -103.81841 36932 ft 513 kts 108°
2026-05-08 02:12 31.49166 -103.73589 36955 ft 513 kts 108°
2026-05-08 02:13 31.48030 -103.65346 36988 ft 513 kts 108°
2026-05-08 02:13 31.46888 -103.57106 37006 ft 513 kts 108°
2026-05-08 02:14 31.45820 -103.48829 37014 ft 515 kts 107°
2026-05-08 02:14 31.44845 -103.40517 37003 ft 515 kts 107°
2026-05-08 02:15 31.43864 -103.32252 36981 ft 515 kts 107°
2026-05-08 02:15 31.42840 -103.23952 36956 ft 515 kts 107°
2026-05-08 02:16 31.41797 -103.15658 36935 ft 515 kts 107°
2026-05-08 02:16 31.40759 -103.07345 36923 ft 516 kts 107°
2026-05-08 02:17 31.39720 -102.99041 36928 ft 516 kts 107°
2026-05-08 02:17 31.38671 -102.90726 36939 ft 516 kts 107°
2026-05-08 02:18 31.37628 -102.82474 36940 ft 516 kts 107°
2026-05-08 02:18 31.36571 -102.74164 36951 ft 516 kts 108°
2026-05-08 02:19 31.35506 -102.65859 36947 ft 516 kts 108°
2026-05-08 02:19 31.34425 -102.57547 36957 ft 517 kts 108°
2026-05-08 02:20 31.33345 -102.49238 36972 ft 517 kts 108°
2026-05-08 02:20 31.32272 -102.40913 36970 ft 518 kts 108°
2026-05-08 02:21 31.31185 -102.32595 36977 ft 518 kts 108°
2026-05-08 02:21 31.30079 -102.24267 36979 ft 518 kts 108°
2026-05-08 02:22 31.28979 -102.15933 36993 ft 519 kts 108°
2026-05-08 02:22 31.27881 -102.07655 36995 ft 519 kts 108°
2026-05-08 02:23 31.26763 -101.99314 37003 ft 519 kts 108°
2026-05-08 02:23 31.25644 -101.90976 37002 ft 520 kts 108°
2026-05-08 02:24 31.24523 -101.82621 37010 ft 520 kts 108°
2026-05-08 02:24 31.23398 -101.74270 37013 ft 520 kts 108°
2026-05-08 02:25 31.22250 -101.65921 37016 ft 521 kts 108°
2026-05-08 02:25 31.21100 -101.57551 37019 ft 522 kts 108°
2026-05-08 02:26 31.19948 -101.49186 37024 ft 522 kts 108°
2026-05-08 02:26 31.18799 -101.40857 37026 ft 523 kts 108°
2026-05-08 02:27 31.17640 -101.32482 37028 ft 524 kts 107°
2026-05-08 02:27 31.16794 -101.23991 37031 ft 529 kts 102°
2026-05-08 02:28 31.16274 -101.15400 37035 ft 531 kts 101°
2026-05-08 02:28 31.15744 -101.06804 37035 ft 530 kts 102°
2026-05-08 02:29 31.15080 -100.98247 37041 ft 529 kts 103°
2026-05-08 02:29 31.14359 -100.89693 37041 ft 530 kts 103°
2026-05-08 02:30 31.13664 -100.81128 37045 ft 530 kts 103°
2026-05-08 02:30 31.12991 -100.72610 37049 ft 530 kts 103°
2026-05-08 02:31 31.12308 -100.64034 37052 ft 531 kts 103°
2026-05-08 02:31 31.11612 -100.55457 37054 ft 531 kts 103°
2026-05-08 02:32 31.10903 -100.46874 37056 ft 532 kts 103°
2026-05-08 02:32 31.10188 -100.38284 37056 ft 532 kts 103°
2026-05-08 02:33 31.09475 -100.29700 37053 ft 532 kts 103°
2026-05-08 02:33 31.08760 -100.21118 37049 ft 532 kts 103°
2026-05-08 02:34 31.08032 -100.12528 37046 ft 532 kts 103°
2026-05-08 02:34 31.07296 -100.03933 37051 ft 532 kts 103°
2026-05-08 02:35 31.06551 -99.95346 37051 ft 532 kts 103°
2026-05-08 02:35 31.05803 -99.86812 37051 ft 532 kts 103°
2026-05-08 02:36 31.05050 -99.78214 37060 ft 533 kts 103°
2026-05-08 02:36 31.04292 -99.69622 37067 ft 533 kts 103°
2026-05-08 02:37 31.03536 -99.61019 37067 ft 533 kts 103°
2026-05-08 02:37 31.02776 -99.52423 37074 ft 533 kts 103°
2026-05-08 02:38 31.02006 -99.43882 37078 ft 533 kts 103°
2026-05-08 02:38 31.01213 -99.35285 37079 ft 533 kts 103°
2026-05-08 02:39 31.00429 -99.26690 37077 ft 533 kts 103°
2026-05-08 02:39 30.99644 -99.18098 37076 ft 533 kts 103°
2026-05-08 02:40 30.98848 -99.09508 37068 ft 533 kts 103°
2026-05-08 02:40 30.98044 -99.00967 37059 ft 533 kts 103°
2026-05-08 02:41 30.97229 -98.92376 37056 ft 533 kts 103°
2026-05-08 02:41 30.96407 -98.83774 37056 ft 533 kts 104°
2026-05-08 02:42 30.95367 -98.75294 37055 ft 530 kts 107°
2026-05-08 02:42 30.94104 -98.66833 37056 ft 529 kts 107°
2026-05-08 02:43 30.92840 -98.58373 37054 ft 530 kts 107°
2026-05-08 02:43 30.91647 -98.49901 37047 ft 530 kts 106°
2026-05-08 02:44 30.90479 -98.41440 37029 ft 530 kts 106°
2026-05-08 02:44 30.89296 -98.32958 37029 ft 530 kts 106°
2026-05-08 02:45 30.88093 -98.24482 37026 ft 530 kts 107°
2026-05-08 02:45 30.86881 -98.16066 37027 ft 530 kts 107°
2026-05-08 02:46 30.85657 -98.07590 37026 ft 530 kts 107°
2026-05-08 02:46 30.84434 -97.99124 37026 ft 530 kts 107°
2026-05-08 02:47 30.83206 -97.90652 37038 ft 531 kts 107°
2026-05-08 02:47 30.81968 -97.82193 37039 ft 531 kts 107°
2026-05-08 02:48 30.80719 -97.73765 37028 ft 531 kts 107°
2026-05-08 02:48 30.79461 -97.65298 37034 ft 531 kts 107°
2026-05-08 02:49 30.78833 -97.61056 36907 ft 532 kts 107°
2026-05-08 02:49 30.78211 -97.56864 36651 ft 531 kts 107°
2026-05-08 02:49 30.77581 -97.52637 36359 ft 530 kts 107°
2026-05-08 02:49 30.76936 -97.48328 35433 ft 538 kts 106°
2026-05-08 02:50 30.76285 -97.44014 34489 ft 546 kts 105°
2026-05-08 02:50 30.75639 -97.39731 33940 ft 543 kts 105°
2026-05-08 02:50 30.74988 -97.35407 33116 ft 543 kts 105°
2026-05-08 02:50 30.74333 -97.31067 32256 ft 544 kts 105°
2026-05-08 02:51 30.73677 -97.26731 31417 ft 545 kts 105°
2026-05-08 02:51 30.73021 -97.22402 30724 ft 542 kts 105°
2026-05-08 02:51 30.72366 -97.18089 29960 ft 541 kts 105°
2026-05-08 02:51 30.71713 -97.13796 29203 ft 537 kts 105°
2026-05-08 02:52 30.71062 -97.09537 28525 ft 531 kts 105°
2026-05-08 02:52 30.70418 -97.05331 27874 ft 525 kts 104°
2026-05-08 02:52 30.69789 -97.01216 27240 ft 520 kts 104°
2026-05-08 02:52 30.69158 -96.97098 26594 ft 514 kts 104°
2026-05-08 02:53 30.68530 -96.93018 25983 ft 509 kts 104°
2026-05-08 02:53 30.67906 -96.88985 25378 ft 504 kts 104°
2026-05-08 02:53 30.67286 -96.84996 24787 ft 499 kts 104°
2026-05-08 02:53 30.66669 -96.81043 24215 ft 494 kts 104°
2026-05-08 02:54 30.66064 -96.77157 23644 ft 490 kts 104°
2026-05-08 02:54 30.65460 -96.73283 22959 ft 485 kts 103°
2026-05-08 02:54 30.65062 -96.70739 22579 ft 481 kts 103°
2026-05-08 02:54 30.64266 -96.65674 21785 ft 472 kts 103°
2026-05-08 02:55 30.63876 -96.63206 21485 ft 467 kts 103°
2026-05-08 02:55 30.62714 -96.55887 20513 ft 454 kts 103°
2026-05-08 02:55 30.61959 -96.51142 19854 ft 448 kts 103°
2026-05-08 02:56 30.61578 -96.48739 19514 ft 446 kts 103°
2026-05-08 02:56 30.60976 -96.45216 18999 ft 441 kts 107°
2026-05-08 02:56 30.59965 -96.41897 18491 ft 433 kts 118°
2026-05-08 02:56 30.58521 -96.38929 17934 ft 424 kts 129°
2026-05-08 02:57 30.56794 -96.36187 17414 ft 417 kts 131°
2026-05-08 02:57 30.55091 -96.33491 16920 ft 411 kts 131°
2026-05-08 02:57 30.53412 -96.30828 16396 ft 406 kts 131°
2026-05-08 02:57 30.52157 -96.28825 15994 ft 402 kts 131°
2026-05-08 02:58 30.50520 -96.26219 15495 ft 396 kts 131°
2026-05-08 02:58 30.48898 -96.23658 14990 ft 391 kts 131°
2026-05-08 02:58 30.47313 -96.21162 14492 ft 387 kts 131°
2026-05-08 02:58 30.45724 -96.18660 13988 ft 383 kts 130°
2026-05-08 02:59 30.44151 -96.16184 13452 ft 379 kts 130°
2026-05-08 02:59 30.42597 -96.13739 12939 ft 374 kts 130°
2026-05-08 02:59 30.41065 -96.11332 12524 ft 367 kts 130°
2026-05-08 02:59 30.39584 -96.09000 12375 ft 352 kts 130°
2026-05-08 03:00 30.38158 -96.06754 12223 ft 339 kts 130°
2026-05-08 03:00 30.36648 -96.04781 12047 ft 324 kts 143°
2026-05-08 03:00 30.34847 -96.03293 11708 ft 315 kts 156°
2026-05-08 03:00 30.32849 -96.02329 11369 ft 307 kts 167°
2026-05-08 03:01 30.30817 -96.01600 11026 ft 305 kts 167°
2026-05-08 03:01 30.28798 -96.00863 10667 ft 303 kts 166°
2026-05-08 03:01 30.26794 -96.00123 10291 ft 301 kts 166°
2026-05-08 03:01 30.24836 -95.99400 9923 ft 298 kts 165°
2026-05-08 03:02 30.22868 -95.98671 9533 ft 295 kts 165°
2026-05-08 03:02 30.20910 -95.97945 9117 ft 293 kts 165°
2026-05-08 03:02 30.18933 -95.97217 8381 ft 302 kts 164°
2026-05-08 03:02 30.16987 -95.96503 8091 ft 288 kts 164°
2026-05-08 03:03 30.15180 -95.95703 7961 ft 270 kts 152°
2026-05-08 03:03 30.13773 -95.94361 7835 ft 256 kts 132°
2026-05-08 03:03 30.12873 -95.92628 7611 ft 248 kts 114°
2026-05-08 03:03 30.12252 -95.90802 7399 ft 241 kts 114°
2026-05-08 03:04 30.11633 -95.89014 7193 ft 238 kts 115°
2026-05-08 03:04 30.10806 -95.87411 6989 ft 234 kts 127°
2026-05-08 03:04 30.09872 -95.85879 6793 ft 232 kts 127°
2026-05-08 03:04 30.08950 -95.84349 6584 ft 230 kts 126°
2026-05-08 03:05 30.08039 -95.82830 6399 ft 229 kts 126°
2026-05-08 03:05 30.07134 -95.81325 6184 ft 227 kts 126°
2026-05-08 03:05 30.06245 -95.79850 5975 ft 226 kts 126°
2026-05-08 03:05 30.05346 -95.78359 5757 ft 226 kts 126°
2026-05-08 03:06 30.04455 -95.76884 5535 ft 223 kts 126°
2026-05-08 03:06 30.03566 -95.75415 5332 ft 224 kts 126°
2026-05-08 03:06 30.02674 -95.73943 5120 ft 223 kts 126°
2026-05-08 03:06 30.01783 -95.72474 4897 ft 223 kts 126°
2026-05-08 03:07 30.00904 -95.71025 4907 ft 221 kts 126°
2026-05-08 03:07 30.00031 -95.69576 4972 ft 223 kts 124°
2026-05-08 03:07 29.99416 -95.67928 4999 ft 226 kts 105°
2026-05-08 03:07 29.99267 -95.66119 4880 ft 227 kts 90°
2026-05-08 03:08 29.99286 -95.64296 4761 ft 224 kts 91°
2026-05-08 03:08 29.99296 -95.62541 4631 ft 213 kts 91°
2026-05-08 03:08 29.99301 -95.60881 4395 ft 208 kts 92°
2026-05-08 03:08 29.99298 -95.59204 4050 ft 209 kts 92°
2026-05-08 03:09 29.99300 -95.57535 3765 ft 207 kts 92°
2026-05-08 03:09 29.99305 -95.55915 3498 ft 194 kts 92°
2026-05-08 03:09 29.99309 -95.54440 3267 ft 172 kts 92°
2026-05-08 03:09 29.99313 -95.53166 3048 ft 147 kts 92°
2026-05-08 03:10 29.99315 -95.52043 2871 ft 135 kts 93°
2026-05-08 03:10 29.99317 -95.50999 2703 ft 129 kts 93°
2026-05-08 03:10 29.99319 -95.49970 2535 ft 127 kts 92°
2026-05-08 03:10 29.99320 -95.48954 2372 ft 126 kts 91°
2026-05-08 03:11 29.99322 -95.47938 2208 ft 126 kts 91°
2026-05-08 03:11 29.99324 -95.46923 2038 ft 126 kts 90°
2026-05-08 03:11 29.99326 -95.45925 1884 ft 125 kts 90°
2026-05-08 03:11 29.99328 -95.44918 1717 ft 126 kts 89°
2026-05-08 03:12 29.99329 -95.43909 1543 ft 125 kts 89°
2026-05-08 03:12 29.99331 -95.42910 1383 ft 124 kts 89°
2026-05-08 03:12 29.99333 -95.41909 1219 ft 124 kts 89°
2026-05-08 03:12 29.99334 -95.40897 1052 ft 127 kts 88°
2026-05-08 03:13 29.99336 -95.39875 887 ft 128 kts 86°
2026-05-08 03:13 29.99337 -95.38847 709 ft 131 kts 86°
2026-05-08 03:13 29.99338 -95.37801 545 ft 131 kts 87°
2026-05-08 03:13 29.99341 -95.36736 362 ft 132 kts 87°
2026-05-08 03:14 29.99344 -95.35681 183 ft 131 kts 87°
2026-05-08 03:14 29.99346 -95.34700 103 ft 110 kts 89°
2026-05-08 03:14 29.99336 -95.34050 101 ft 46 kts 93°
2026-05-08 03:14 29.99244 -95.33810 102 ft 19 kts 124°
2026-05-08 03:15 29.99180 -95.33847 102 ft 14 kts 259°
2026-05-08 03:15 29.99178 -95.33991 102 ft 23 kts 270°
2026-05-08 03:15 29.99179 -95.34184 102 ft 26 kts 270°
2026-05-08 03:15 29.99180 -95.34400 102 ft 28 kts 270°
2026-05-08 03:16 29.99181 -95.34628 102 ft 26 kts 270°
2026-05-08 03:16 29.99179 -95.34848 103 ft 28 kts 269°
2026-05-08 03:16 29.99178 -95.35086 103 ft 31 kts 271°
2026-05-08 03:16 29.99132 -95.35268 102 ft 23 kts 196°
2026-05-08 03:17 29.98963 -95.35274 103 ft 25 kts 180°
2026-05-08 03:17 29.98780 -95.35275 103 ft 28 kts 180°
2026-05-08 03:17 29.98614 -95.35277 103 ft 9 kts 179°
2026-05-08 03:17 29.98583 -95.35277 103 ft 15 kts 179°
2026-05-08 03:18 29.98419 -95.35227 102 ft 25 kts 152°
2026-05-08 03:18 29.98368 -95.35020 101 ft 51 kts 100°
2026-05-08 03:18 29.98360 -95.34772 102 ft 14 kts 356°
2026-05-08 03:18 29.98472 -95.34837 102 ft 19 kts 336°
2026-05-08 03:19 29.98516 -95.34890 102 ft 0 kts 264°